TELLUMGE Weather Reports


Display with metric or nautical units.
time (UTC)temp
F
wind
direction
speed
MPH
gust
MPH
rain 1hr
in
rain 24hr
in
rain mn
in
humidity
%
barometer
mb
20260509223011 73 318 1.0 7.0 0.00 0.00 0.00 81 1021.9
20260509221513 72 28 1.0 6.0 0.00 0.00 0.00 81 1021.8
20260509220025 71 72 1.0 5.0 0.00 0.00 0.00 83 1021.7
20260509214504 71 54 0.0 2.0 0.00 0.00 0.00 84 1021.5
20260509213009 70 96 1.0 5.0 0.00 0.00 0.00 85 1021.4
20260509211513 70 100 1.0 7.0 0.00 0.00 0.00 85 1021.1
20260509210021 69 62 1.0 5.0 0.00 0.00 0.00 86 1020.9
20260509204522 69 53 3.0 8.0 0.00 0.00 0.00 86 1020.6
20260509203011 69 57 3.0 8.0 0.00 0.00 0.00 86 1020.5
20260509201511 69 49 1.0 7.0 0.00 0.00 0.00 87 1020.3
20260509200013 68 61 1.0 4.0 0.00 0.00 0.00 87 1020.2
20260509194519 68 52 1.0 6.0 0.00 0.00 0.00 87 1020.0
20260509193023 68 31 3.0 6.0 0.00 0.00 0.00 88 1019.9
20260509191516 68 91 1.0 5.0 0.00 0.00 0.00 87 1019.8
20260509190017 68 89 1.0 8.0 0.00 0.00 0.00 87 1019.6
20260509184516 68 52 2.0 7.0 0.00 0.00 0.00 88 1019.4
20260509183022 67 6 0.0 3.0 0.00 0.00 0.00 88 1019.5
20260509181524 68 68 3.0 6.0 0.00 0.00 0.00 88 1019.5
20260509180011 67 69 1.0 4.0 0.00 0.00 0.00 87 1019.5
20260509174514 68 70 1.0 6.0 0.00 0.00 0.00 87 1019.4
20260509173019 68 27 3.0 7.0 0.00 0.00 0.00 87 1019.2
20260509171522 68 41 0.0 8.0 0.00 0.00 0.00 87 1019.2
20260509170013 68 60 1.0 6.0 0.00 0.00 0.00 87 1019.4
20260509164512 68 352 0.0 6.0 0.00 0.00 0.00 87 1019.3
20260509163018 68 82 2.0 4.0 0.00 0.00 0.00 87 1019.4
20260509161503 68 75 2.0 5.0 0.00 0.00 0.00 87 1019.6
20260509160005 67 50 2.0 5.0 0.00 0.00 0.00 87 1019.7
20260509154508 67 71 3.0 7.0 0.00 0.00 0.00 88 1019.8
20260509153014 67 72 2.0 5.0 0.00 0.00 0.00 88 1020.0
20260509151517 67 82 1.0 5.0 0.00 0.00 0.00 87 1020.0
20260509150004 67 66 2.0 5.0 0.00 0.00 0.00 87 1020.1
20260509144507 68 112 2.0 7.0 0.00 0.00 0.00 86 1020.1
20260509143010 67 44 3.0 7.0 0.00 0.00 0.00 86 1020.3
20260509141512 67 32 2.0 5.0 0.00 0.00 0.00 86 1020.2
20260509140017 67 72 2.0 6.0 0.00 0.00 0.00 86 1020.5
20260509134504 67 77 1.0 4.0 0.00 0.00 0.00 86 1020.5
20260509133005 67 68 1.0 5.0 0.00 0.00 0.00 86 1020.6
20260509131508 67 65 1.0 6.0 0.00 0.00 0.00 85 1020.5
20260509130014 67 73 2.0 7.0 0.00 0.00 0.00 84 1020.6
20260509121507 67 85 2.0 4.0 0.00 0.00 0.00 83 1020.7
20260509120011 67 76 3.0 7.0 0.00 0.00 0.00 82 1020.8
20260509114516 67 49 3.0 5.0 0.00 0.00 0.00 81 1021.0
20260509111522 67 81 2.0 5.0 0.00 0.00 0.00 80 1021.1
20260509110006 67 48 1.0 3.0 0.00 0.00 0.00 80 1021.2
20260509104513 68 74 2.0 4.0 0.00 0.00 0.00 79 1021.4
20260509103015 68 27 2.0 6.0 0.00 0.00 0.00 78 1021.2
20260509101522 69 31 0.0 7.0 0.00 0.00 0.00 78 1021.3
20260509100024 69 46 1.0 4.0 0.00 0.00 0.00 77 1021.2
20260509094511 68 82 3.0 7.0 0.00 0.00 0.00 78 1021.1
20260509093012 69 75 0.0 5.0 0.00 0.00 0.00 77 1020.9
20260509091519 69 65 0.0 4.0 0.00 0.00 0.00 77 1020.7
20260509090023 70 68 0.0 4.0 0.00 0.00 0.00 77 1020.5
20260509084528 70 105 1.0 4.0 0.00 0.00 0.00 77 1020.3
20260509083012 70 238 1.0 5.0 0.00 0.00 0.00 77 1020.1
20260509081516 70 154 0.0 3.0 0.00 0.00 0.00 77 1019.8
20260509080021 70 84 0.0 3.0 0.00 0.00 0.00 77 1019.6
20260509074524 70 111 0.0 3.0 0.00 0.00 0.00 79 1019.6
20260509073040 70 92 0.0 2.0 0.00 0.00 0.00 77 1019.4
20260509071510 71 143 0.0 3.0 0.00 0.00 0.00 75 1019.3
20260509070013 71 102 0.0 3.0 0.00 0.00 0.00 72 1019.1
20260509064504 72 151 0.0 4.0 0.00 0.00 0.00 72 1019.0
20260509063009 72 37 1.0 5.0 0.00 0.00 0.00 71 1018.8
20260509061505 73 156 0.0 5.0 0.00 0.00 0.00 71 1018.6
20260509060010 73 85 0.0 4.0 0.00 0.00 0.00 69 1018.4
20260509054519 74 56 1.0 9.0 0.00 0.00 0.00 69 1018.3
20260509053003 74 76 0.0 4.0 0.00 0.00 0.00 68 1018.3
20260509051506 74 231 1.0 4.0 0.00 0.00 0.00 68 1018.1
20260509050009 75 200 1.0 5.0 0.00 0.00 0.00 66 1018.1
20260509044530 75 299 1.0 6.0 0.00 0.00 0.00 67 1018.0
20260509043023 76 150 0.0 7.0 0.00 0.00 0.00 66 1017.9
20260509041505 76 120 1.0 4.0 0.00 0.00 0.00 63 1018.0
20260509040005 76 185 0.0 5.0 0.00 0.00 0.00 62 1018.1
20260509034508 77 74 1.0 5.0 0.00 0.00 0.00 58 1018.2
20260509033010 78 134 1.0 6.0 0.00 0.00 0.00 55 1018.2
20260509031522 78 313 0.0 4.0 0.00 0.00 0.00 57 1018.3
20260509030005 77 163 1.0 6.0 0.00 0.00 0.00 51 1018.4
20260509024508 76 129 1.0 5.0 0.00 0.00 0.00 51 1018.7
20260509023010 76 92 0.0 5.0 0.00 0.00 0.00 54 1018.9
20260509021533 76 355 1.0 7.0 0.00 0.00 0.00 53 1019.2
20260509020016 76 212 0.0 3.0 0.00 0.00 0.00 51 1019.3
20260509014524 76 310 2.0 5.0 0.00 0.00 0.00 54 1019.5
20260509013008 76 250 1.0 5.0 0.00 0.00 0.00 52 1019.8
20260509011508 75 56 2.0 10.0 0.00 0.00 0.00 47 1020.2
20260509010019 75 265 1.0 4.0 0.00 0.00 0.00 49 1020.3
20260509004524 74 67 1.0 11.0 0.00 0.00 0.00 50 1020.3
20260509003024 74 115 1.0 5.0 0.00 0.00 0.00 45 1020.4
20260509001508 74 211 1.0 8.0 0.00 0.00 0.00 47 1020.4
20260509000011 73 222 1.0 7.0 0.00 0.00 0.00 49 1020.3
20260508234524 73 69 1.0 6.0 0.00 0.00 0.00 47 1020.3
20260508231526 72 70 2.0 6.0 0.00 0.00 0.00 46 1020.4
20260508230008 70 70 1.0 7.0 0.00 0.00 0.00 49 1020.3
20260508224516 69 351 2.0 5.0 0.00 0.00 0.00 51 1020.2